Total_Precipitation_Accumulation
1.48 1.35 2.19 2.16 1.91 1.70 1.62 1.64 1.72 1.84 1.93 1.92 1.85 1.73 1.56 1.46 1.51 1.61 1.68 1.66 1.60 1.59 1.55 1.51 1.50 1.58 1.52 1.37 1.41 1.55 1.75 1.90 1.76 1.68 1.72 1.76 1.88 1.93 2.18 2.40 2.44 2.44 2.42
1.12 1.23 2.04 2.03 1.83 1.61 1.57 1.64 1.67 1.67 1.68 1.76 1.83 1.67 1.59 1.55 1.63 1.71 1.70 1.65 1.58 1.56 1.55 1.52 1.62 1.62 1.46 1.38 1.53 1.73 1.84 1.92 1.84 1.86 2.02 2.00 2.03 2.13 2.21 2.30 2.41 2.48 2.44
0.99 1.11 1.59 1.93 1.83 1.68 1.61 1.60 1.68 1.70 1.63 1.67 1.70 1.73 1.64 1.74 1.83 1.83 1.74 1.66 1.67 1.61 1.59 1.55 1.56 1.62 1.47 1.50 1.75 1.85 1.73 1.79 2.05 2.15 2.41 2.59 2.20 2.16 2.17 2.27 2.22 2.29 2.35
0.87 1.00 1.42 1.96 1.88 1.79 1.77 1.78 1.85 1.80 1.59 1.55 1.54 1.51 1.53 1.66 1.82 1.94 1.90 1.76 1.77 1.68 1.56 1.45 1.42 1.55 1.51 1.53 1.75 1.75 1.68 1.80 2.11 2.22 2.30 2.46 2.40 2.35 2.45 2.49 2.40 2.33 2.42
0.91 0.99 1.54 2.09 1.90 1.81 1.81 1.93 1.91 1.74 1.64 1.54 1.49 1.48 1.50 1.64 1.78 1.90 1.75 1.71 1.77 1.75 1.64 1.60 1.58 1.67 1.65 1.69 1.73 1.75 1.85 1.97 2.11 1.93 2.04 2.31 2.92 2.89 2.49 2.63 2.68 2.53 2.39
0.81 0.90 1.39 2.02 1.90 1.74 1.71 1.88 1.80 1.67 1.73 1.65 1.54 1.56 1.64 1.81 2.03 2.06 1.89 1.86 1.81 1.81 1.71 1.71 1.72 1.77 1.75 1.75 1.76 1.85 1.99 2.05 1.84 1.84 2.05 2.31 2.82 2.95 2.42 2.44 2.53 2.56 2.45
0.80 0.84 1.15 1.75 1.78 1.63 1.59 1.69 1.65 1.67 1.76 1.67 1.60 1.63 1.73 1.84 2.01 2.16 2.14 2.05 2.01 1.94 1.83 1.75 1.75 1.71 1.70 1.74 1.71 1.82 1.98 1.86 1.58 1.87 2.00 2.36 2.58 2.69 2.33 2.27 2.37 2.56 2.78
0.89 0.80 0.95 1.49 1.63 1.56 1.56 1.59 1.55 1.57 1.58 1.55 1.60 1.64 1.66 1.73 1.85 2.00 2.07 2.13 2.07 1.96 1.95 1.90 1.86 1.75 1.72 1.65 1.71 1.85 1.91 1.58 1.22 1.54 1.91 2.34 2.84 2.83 2.35 2.21 2.32 2.50 2.86
1.26 1.07 1.05 1.17 1.25 1.38 1.51 1.57 1.67 1.73 1.58 1.46 1.44 1.48 1.52 1.54 1.63 1.73 1.81 1.90 1.90 1.91 1.91 1.85 1.78 1.78 1.80 1.67 1.61 1.68 1.67 1.50 1.34 1.48 1.47 2.25 3.00 2.86 2.41 2.21 2.20 2.32 2.55
1.30 1.23 1.16 1.17 1.15 1.16 1.27 1.59 1.89 1.96 1.80 1.55 1.45 1.38 1.47 1.42 1.46 1.58 1.60 1.79 1.90 1.89 1.91 1.93 1.85 1.76 1.80 1.78 1.69 1.62 1.53 1.30 1.17 1.25 1.56 2.22 2.97 2.85 2.48 2.19 2.02 1.90 2.10
1.21 1.23 1.17 1.17 1.20 1.28 1.34 1.47 1.83 2.03 1.99 1.55 1.31 1.30 1.24 1.13 1.22 1.33 1.38 1.81 1.99 2.10 2.11 2.07 1.93 1.79 1.70 1.71 1.75 1.66 1.30 1.08 1.08 1.23 1.65 2.52 3.08 3.04 2.55 2.19 1.99 1.82 1.73
1.05 1.07 1.08 1.07 1.06 1.09 1.13 1.52 1.82 1.68 1.72 1.38 1.29 1.21 1.17 1.24 1.28 1.13 1.27 1.74 1.97 2.09 2.09 2.02 1.94 1.71 1.45 1.30 1.34 1.31 1.05 0.89 0.94 1.13 1.79 2.79 3.34 3.35 2.78 2.25 1.91 1.74 1.71
0.94 0.84 0.81 0.86 0.84 0.84 0.96 1.14 1.47 1.72 1.70 1.62 1.53 1.41 1.37 1.28 1.14 1.11 1.27 1.42 1.61 1.71 1.63 1.69 1.67 1.48 1.30 1.23 1.23 1.12 1.03 0.89 0.98 1.15 1.88 2.70 3.25 3.43 3.01 2.35 1.93 1.87 1.94
0.99 0.97 0.80 0.73 0.73 0.73 0.78 0.94 1.19 1.41 1.49 1.48 1.38 1.24 1.42 1.38 1.19 1.18 1.41 1.55 1.56 1.63 1.77 1.78 1.71 1.55 1.38 1.24 1.24 1.13 1.06 1.03 1.02 1.13 1.77 2.31 2.87 3.18 3.15 2.72 2.27 2.05 1.97
1.00 1.05 0.93 0.73 0.68 0.75 0.78 0.84 0.91 1.13 1.23 1.20 1.33 1.23 1.26 1.29 1.17 1.13 1.23 1.49 1.57 1.61 1.81 1.88 1.68 1.59 1.59 1.53 1.43 1.34 1.28 1.19 1.19 1.16 1.51 1.93 2.37 2.90 3.31 3.23 2.83 2.33 2.18
0.88 0.94 0.91 0.80 0.77 0.78 0.75 0.71 0.71 0.75 0.92 0.92 0.92 0.87 1.05 1.21 1.21 1.23 1.18 1.33 1.59 1.66 1.73 1.75 1.67 1.60 1.55 1.56 1.49 1.48 1.44 1.25 1.32 1.32 1.42 1.51 1.74 2.14 2.84 3.26 3.03 2.59 2.43
0.75 0.80 0.85 0.86 0.84 0.81 0.82 0.80 0.74 0.75 0.80 0.87 0.91 0.90 1.00 1.13 1.22 1.22 1.12 1.21 1.46 1.69 1.73 1.72 1.65 1.66 1.49 1.41 1.49 1.55 1.53 1.41 1.44 1.49 1.47 1.45 1.38 1.62 2.21 2.86 3.01 2.84 2.76
0.58 0.64 0.71 0.72 0.78 0.83 0.85 0.89 0.85 0.87 0.87 0.85 0.90 0.89 0.90 1.05 1.20 1.30 1.22 1.18 1.38 1.63 1.88 2.01 1.88 1.78 1.65 1.54 1.59 1.61 1.53 1.57 1.56 1.55 1.51 1.51 1.51 1.40 1.57 1.91 2.31 2.73 2.91
0.45 0.45 0.51 0.59 0.69 0.77 0.84 0.92 0.88 0.89 1.03 1.08 0.96 0.87 0.93 1.04 1.13 1.35 1.46 1.39 1.44 1.66 1.79 1.87 1.91 1.77 1.74 1.66 1.53 1.51 1.48 1.58 1.65 1.49 1.48 1.49 1.56 1.52 1.45 1.32 1.48 1.86 2.38
0.42 0.41 0.43 0.52 0.57 0.59 0.75 0.91 1.00 0.93 0.98 1.19 1.22 1.25 1.29 1.33 1.34 1.48 1.60 1.63 1.65 1.77 1.79 1.97 2.18 1.98 1.78 1.75 1.59 1.48 1.45 1.51 1.56 1.55 1.61 1.60 1.60 1.57 1.52 1.37 1.31 1.18 1.53
0.41 0.37 0.43 0.49 0.52 0.53 0.65 0.80 0.90 0.98 1.12 1.30 1.35 1.42 1.57 1.60 1.60 1.69 1.79 1.86 1.83 1.78 1.88 2.08 2.48 2.37 2.02 1.80 1.81 1.70 1.55 1.53 1.58 1.54 1.68 1.75 1.66 1.61 1.63 1.56 1.40 1.24 1.16
0.38 0.36 0.38 0.49 0.58 0.62 0.68 0.82 0.99 1.22 1.30 1.43 1.59 1.59 1.60 1.66 1.70 1.77 1.95 2.07 2.05 2.06 2.16 2.22 2.50 2.69 2.43 2.21 2.20 2.37 2.14 1.93 1.61 1.36 1.41 1.53 1.59 1.63 1.61 1.63 1.51 1.36 1.31
0.34 0.42 0.44 0.56 0.76 0.93 1.00 1.20 1.50 1.75 1.81 1.75 1.78 1.85 1.82 1.83 1.90 1.86 1.94 2.14 2.15 2.16 2.24 2.43 2.75 3.08 3.06 2.76 2.51 2.68 2.43 2.15 2.06 1.56 1.26 1.32 1.46 1.58 1.61 1.67 1.62 1.49 1.44
0.35 0.49 0.68 0.88 1.18 1.39 1.50 1.65 1.88 1.99 2.02 1.94 1.96 1.98 1.99 1.89 1.82 1.82 1.91 2.10 2.26 2.40 2.53 2.60 2.59 3.00 3.33 3.15 2.93 2.55 2.22 2.09 2.24 2.10 1.62 1.34 1.38 1.42 1.49 1.49 1.59 1.66 1.61
0.60 0.81 1.16 1.44 1.63 1.76 1.79 1.84 2.02 2.16 2.31 2.33 2.24 2.10 2.03 2.01 1.94 1.84 1.86 1.92 1.96 2.08 2.26 2.40 2.46 2.72 2.96 3.14 3.12 2.89 2.59 2.40 1.96 1.96 2.04 1.79 1.53 1.30 1.29 1.40 1.58 1.65 1.65
1.02 1.23 1.47 1.62 1.76 1.74 1.71 1.73 1.84 2.03 2.18 2.20 2.25 2.24 2.13 2.04 1.95 1.81 1.73 1.81 1.83 1.84 1.99 2.12 2.24 2.53 2.73 2.88 2.95 2.87 2.76 2.68 2.36 2.08 1.93 1.90 1.75 1.51 1.35 1.34 1.41 1.50 1.58